Time,TemperatureF,DewpointF,PressureIn,WindDirection,WindDirectionDegrees,WindSpeedMPH,WindSpeedGustMPH,Humidity,HourlyPrecipIn,Conditions,Clouds,dailyrainin,SoftwareType,DateUTC
2013-04-03 00:02:00,44.0,22.0,28.67,SSE,158,2.0,3.0,41,0.00,,,0.00,,2013-04-03 05:02:00,
2013-04-03 00:12:00,44.0,22.0,28.67,SSE,158,2.0,3.0,41,0.00,,,0.00,,2013-04-03 05:12:00,
2013-04-03 00:22:00,43.0,22.0,28.70,SSE,158,2.0,2.0,43,0.00,,,0.00,,2013-04-03 05:22:00,
2013-04-03 00:32:00,43.0,23.0,28.70,SSE,158,2.0,3.0,44,0.00,,,0.00,,2013-04-03 05:32:00,
2013-04-03 00:42:00,43.0,23.0,28.70,SSE,158,2.0,3.0,44,0.00,,,0.00,,2013-04-03 05:42:00,
2013-04-03 00:52:00,42.0,23.0,28.70,SSE,158,0.0,0.0,47,0.00,,,0.00,,2013-04-03 05:52:00,
2013-04-03 01:02:00,42.0,24.0,28.70,SSE,158,0.0,0.0,48,0.00,,,0.00,,2013-04-03 06:02:00,
2013-04-03 01:12:00,42.0,24.0,28.70,SSE,158,0.0,0.0,48,0.00,,,0.00,,2013-04-03 06:12:00,
2013-04-03 01:22:00,41.0,23.0,28.70,SSE,158,0.0,0.0,48,0.00,,,0.00,,2013-04-03 06:22:00,
2013-04-03 01:32:00,41.0,23.0,28.70,SSE,158,0.0,0.0,49,0.00,,,0.00,,2013-04-03 06:32:00,
2013-04-03 01:42:00,41.0,23.0,28.70,SSE,158,0.0,0.0,49,0.00,,,0.00,,2013-04-03 06:42:00,
2013-04-03 01:52:00,40.0,23.0,28.70,SSE,158,0.0,0.0,50,0.00,,,0.00,,2013-04-03 06:52:00,
2013-04-03 02:02:00,40.0,23.0,28.70,SSE,158,0.0,0.0,50,0.00,,,0.00,,2013-04-03 07:02:00,
2013-04-03 02:12:00,40.0,23.0,28.70,SSE,158,0.0,0.0,50,0.00,,,0.00,,2013-04-03 07:12:00,
2013-04-03 02:23:00,38.0,22.0,28.70,SSE,158,0.0,0.0,52,0.00,,,0.00,,2013-04-03 07:23:00,
2013-04-03 02:32:00,38.0,22.0,28.70,SSE,158,0.0,0.0,53,0.00,,,0.00,,2013-04-03 07:32:00,
2013-04-03 02:42:00,38.0,22.0,28.70,SSE,158,0.0,0.0,53,0.00,,,0.00,,2013-04-03 07:42:00,
2013-04-03 02:53:00,38.0,23.0,28.70,SSE,158,0.0,0.0,54,0.00,,,0.00,,2013-04-03 07:53:00,
2013-04-03 03:02:00,39.0,24.0,28.70,SSE,158,0.0,0.0,55,0.00,,,0.00,,2013-04-03 08:02:00,
2013-04-03 03:12:00,39.0,24.0,28.70,SSE,158,0.0,0.0,55,0.00,,,0.00,,2013-04-03 08:12:00,
2013-04-03 03:22:00,39.0,24.0,28.70,SSE,158,0.0,0.0,55,0.00,,,0.00,,2013-04-03 08:22:00,
2013-04-03 03:32:00,39.0,24.0,28.70,SSE,158,0.0,0.0,55,0.00,,,0.00,,2013-04-03 08:32:00,
2013-04-03 03:42:00,39.0,24.0,28.70,SSE,158,0.0,0.0,55,0.00,,,0.00,,2013-04-03 08:42:00,
2013-04-03 03:52:00,39.0,24.0,28.70,SSE,158,0.0,0.0,55,0.00,,,0.00,,2013-04-03 08:52:00,
2013-04-03 04:02:00,39.0,24.0,28.70,SSE,158,0.0,0.0,55,0.00,,,0.00,,2013-04-03 09:02:00,
2013-04-03 04:12:00,39.0,24.0,28.70,SSE,158,0.0,0.0,55,0.00,,,0.00,,2013-04-03 09:12:00,
2013-04-03 04:22:00,38.0,23.0,28.70,SSE,158,0.0,0.0,55,0.00,,,0.00,,2013-04-03 09:22:00,
2013-04-03 04:33:00,38.0,23.0,28.70,SSE,158,0.0,0.0,55,0.00,,,0.00,,2013-04-03 09:33:00,
2013-04-03 04:43:00,38.0,23.0,28.70,SSE,158,0.0,0.0,55,0.00,,,0.00,,2013-04-03 09:43:00,
2013-04-03 04:53:00,38.0,24.0,28.70,SSE,158,0.0,0.0,56,0.00,,,0.00,,2013-04-03 09:53:00,
2013-04-03 05:03:00,38.0,24.0,28.70,SSE,158,0.0,0.0,56,0.00,,,0.00,,2013-04-03 10:03:00,
2013-04-03 05:12:00,38.0,24.0,28.70,SSE,158,0.0,0.0,56,0.00,,,0.00,,2013-04-03 10:12:00,
2013-04-03 05:22:00,38.0,25.0,28.70,SSE,158,0.0,0.0,58,0.00,,,0.00,,2013-04-03 10:22:00,
2013-04-03 05:33:00,39.0,25.0,28.70,SSE,158,0.0,0.0,58,0.00,,,0.00,,2013-04-03 10:33:00,
2013-04-03 05:42:00,39.0,25.0,28.70,SSE,158,0.0,0.0,58,0.00,,,0.00,,2013-04-03 10:42:00,
2013-04-03 05:53:00,39.0,26.0,28.70,SSE,158,0.0,0.0,59,0.00,,,0.00,,2013-04-03 10:53:00,
2013-04-03 06:02:00,39.0,26.0,28.70,SSE,158,0.0,0.0,59,0.00,,,0.00,,2013-04-03 11:02:00,
2013-04-03 06:12:00,39.0,26.0,28.70,SSE,158,0.0,0.0,59,0.00,,,0.00,,2013-04-03 11:12:00,
2013-04-03 06:22:00,39.0,25.0,28.70,SSE,158,0.0,0.0,58,0.00,,,0.00,,2013-04-03 11:22:00,
2013-04-03 06:32:00,39.0,25.0,28.70,SSE,158,0.0,0.0,57,0.00,,,0.00,,2013-04-03 11:32:00,
2013-04-03 06:42:00,39.0,25.0,28.70,SSE,158,0.0,0.0,57,0.00,,,0.00,,2013-04-03 11:42:00,
2013-04-03 06:53:00,38.0,24.0,28.70,SSE,158,0.0,0.0,57,0.00,,,0.00,,2013-04-03 11:53:00,
2013-04-03 07:02:00,38.0,24.0,28.70,SSE,158,0.0,0.0,56,0.00,,,0.00,,2013-04-03 12:02:00,
2013-04-03 07:12:00,38.0,24.0,28.70,SSE,158,0.0,0.0,56,0.00,,,0.00,,2013-04-03 12:12:00,
2013-04-03 07:22:00,37.0,23.0,28.70,SSE,158,0.0,0.0,56,0.00,,,0.00,,2013-04-03 12:22:00,
2013-04-03 07:32:00,37.0,23.0,28.70,SSE,158,0.0,0.0,57,0.00,,,0.00,,2013-04-03 12:32:00,
2013-04-03 07:42:00,37.0,23.0,28.70,SSE,158,0.0,0.0,57,0.00,,,0.00,,2013-04-03 12:42:00,
2013-04-03 07:52:00,37.0,24.0,28.73,SSE,158,0.0,0.0,59,0.00,,,0.00,,2013-04-03 12:52:00,
2013-04-03 08:02:00,37.0,24.0,28.73,SSE,158,0.0,0.0,59,0.00,,,0.00,,2013-04-03 13:02:00,
2013-04-03 08:12:00,37.0,24.0,28.73,SSE,158,0.0,0.0,59,0.00,,,0.00,,2013-04-03 13:12:00,
2013-04-03 08:22:00,38.0,25.0,28.73,NNE,22,3.0,3.0,59,0.00,,,0.00,,2013-04-03 13:22:00,
2013-04-03 08:32:00,39.0,25.0,28.73,NNE,26,2.0,3.0,57,0.00,,,0.00,,2013-04-03 13:32:00,
2013-04-03 08:42:00,39.0,25.0,28.73,NNE,26,2.0,3.0,57,0.00,,,0.00,,2013-04-03 13:42:00,
2013-04-03 08:52:00,40.0,25.0,28.76,ENE,75,3.0,3.0,55,0.00,,,0.00,,2013-04-03 13:52:00,
2013-04-03 09:02:00,40.0,25.0,28.76,ENE,75,3.0,3.0,55,0.00,,,0.00,,2013-04-03 14:02:00,
2013-04-03 09:12:00,40.0,25.0,28.76,ENE,75,3.0,3.0,55,0.00,,,0.00,,2013-04-03 14:12:00,
2013-04-03 09:22:00,42.0,22.0,28.76,East,98,2.0,5.0,44,0.00,,,0.00,,2013-04-03 14:22:00,
2013-04-03 09:32:00,42.0,21.0,28.76,East,88,5.0,5.0,43,0.00,,,0.00,,2013-04-03 14:32:00,
2013-04-03 09:43:00,42.0,21.0,28.76,East,88,5.0,5.0,43,0.00,,,0.00,,2013-04-03 14:43:00,
2013-04-03 09:52:00,43.0,21.0,28.76,East,84,2.0,3.0,41,0.00,,,0.00,,2013-04-03 14:52:00,
2013-04-03 10:02:00,43.0,21.0,28.76,East,84,2.0,3.0,41,0.00,,,0.00,,2013-04-03 15:02:00,
2013-04-03 10:12:00,43.0,21.0,28.76,East,84,2.0,3.0,41,0.00,,,0.00,,2013-04-03 15:12:00,
2013-04-03 10:23:00,43.0,21.0,28.76,East,93,4.0,4.0,41,0.00,,,0.00,,2013-04-03 15:23:00,
2013-04-03 10:33:00,43.0,20.0,28.76,East,95,3.0,3.0,40,0.00,,,0.00,,2013-04-03 15:33:00,
2013-04-03 10:43:00,43.0,20.0,28.76,East,95,3.0,3.0,40,0.00,,,0.00,,2013-04-03 15:43:00,
2013-04-03 10:53:00,44.0,21.0,28.76,East,101,3.0,5.0,39,0.00,,,0.00,,2013-04-03 15:53:00,
2013-04-03 11:03:00,44.0,21.0,28.76,ENE,65,5.0,5.0,39,0.00,,,0.00,,2013-04-03 16:03:00,
2013-04-03 11:12:00,44.0,21.0,28.76,ENE,65,5.0,5.0,39,0.00,,,0.00,,2013-04-03 16:12:00,
2013-04-03 11:24:00,44.0,21.0,28.79,SE,127,4.0,4.0,39,0.00,,,0.00,,2013-04-03 16:24:00,
2013-04-03 11:32:00,44.0,21.0,28.79,SE,127,4.0,4.0,39,0.00,,,0.00,,2013-04-03 16:32:00,
2013-04-03 11:43:00,44.0,21.0,28.79,SE,127,4.0,4.0,39,0.00,,,0.00,,2013-04-03 16:43:00,
2013-04-03 11:52:00,44.0,20.0,28.79,NE,53,3.0,4.0,38,0.00,,,0.00,,2013-04-03 16:52:00,
2013-04-03 12:02:00,44.0,20.0,28.79,NE,53,3.0,4.0,38,0.00,,,0.00,,2013-04-03 17:02:00,
2013-04-03 12:13:00,44.0,20.0,28.79,NE,53,3.0,4.0,38,0.00,,,0.00,,2013-04-03 17:13:00,
2013-04-03 12:22:00,44.0,20.0,28.79,ESE,105,6.0,6.0,38,0.00,,,0.00,,2013-04-03 17:22:00,
2013-04-03 12:33:00,44.0,20.0,28.76,ESE,102,3.0,5.0,38,0.00,,,0.00,,2013-04-03 17:33:00,
2013-04-03 12:46:00,44.0,20.0,28.76,ESE,102,3.0,5.0,38,0.00,,,0.00,,2013-04-03 17:46:00,
2013-04-03 12:54:00,44.0,20.0,28.76,East,88,2.0,3.0,38,0.00,,,0.00,,2013-04-03 17:54:00,
2013-04-03 13:02:00,44.0,20.0,28.76,ENE,70,3.0,5.0,38,0.00,,,0.00,,2013-04-03 18:02:00,
2013-04-03 13:12:00,44.0,20.0,28.76,ENE,70,3.0,5.0,38,0.00,,,0.00,,2013-04-03 18:12:00,
2013-04-03 13:22:00,44.0,20.0,28.76,East,94,2.0,3.0,38,0.00,,,0.00,,2013-04-03 18:22:00,
2013-04-03 13:33:00,45.0,21.0,28.76,SSE,149,4.0,5.0,38,0.00,,,0.00,,2013-04-03 18:33:00,
2013-04-03 13:42:00,45.0,21.0,28.76,SSE,149,4.0,5.0,38,0.00,,,0.00,,2013-04-03 18:42:00,
2013-04-03 13:52:00,45.0,20.0,28.76,SSE,164,4.0,5.0,37,0.00,,,0.00,,2013-04-03 18:52:00,
2013-04-03 14:02:00,44.0,24.0,28.76,SSW,213,2.0,4.0,45,0.00,,,0.00,,2013-04-03 19:02:00,
2013-04-03 14:12:00,44.0,24.0,28.76,SSW,213,2.0,4.0,45,0.00,,,0.00,,2013-04-03 19:12:00,
2013-04-03 14:22:00,46.0,24.0,28.76,East,91,5.0,5.0,42,0.00,,,0.00,,2013-04-03 19:22:00,
2013-04-03 14:32:00,46.0,24.0,28.76,East,91,5.0,5.0,42,0.00,,,0.00,,2013-04-03 19:32:00,
2013-04-03 14:42:00,46.0,24.0,28.76,East,91,5.0,5.0,42,0.00,,,0.00,,2013-04-03 19:42:00,
2013-04-03 14:52:00,47.0,25.0,28.73,SE,144,3.0,6.0,42,0.00,,,0.00,,2013-04-03 19:52:00,
2013-04-03 15:02:00,48.0,25.0,28.73,SSW,213,3.0,5.0,40,0.00,,,0.00,,2013-04-03 20:02:00,
2013-04-03 15:12:00,48.0,25.0,28.73,SSW,213,3.0,5.0,40,0.00,,,0.00,,2013-04-03 20:12:00,
2013-04-03 15:22:00,48.0,25.0,28.73,SSE,147,3.0,3.0,40,0.00,,,0.00,,2013-04-03 20:22:00,
2013-04-03 15:32:00,48.0,25.0,28.73,ENE,69,3.0,3.0,40,0.00,,,0.00,,2013-04-03 20:32:00,
2013-04-03 15:42:00,48.0,25.0,28.73,ENE,69,3.0,3.0,40,0.00,,,0.00,,2013-04-03 20:42:00,
2013-04-03 15:53:00,48.0,25.0,28.73,South,174,6.0,6.0,41,0.00,,,0.00,,2013-04-03 20:53:00,
2013-04-03 16:02:00,48.0,25.0,28.73,ENE,62,3.0,5.0,40,0.00,,,0.00,,2013-04-03 21:02:00,
2013-04-03 16:12:00,48.0,25.0,28.73,ENE,62,3.0,5.0,40,0.00,,,0.00,,2013-04-03 21:12:00,
2013-04-03 16:22:00,48.0,25.0,28.70,ENE,59,5.0,7.0,40,0.00,,,0.00,,2013-04-03 21:22:00,
2013-04-03 16:32:00,47.0,24.0,28.70,East,81,3.0,3.0,40,0.00,,,0.00,,2013-04-03 21:32:00,
2013-04-03 16:42:00,47.0,24.0,28.70,East,81,3.0,3.0,40,0.00,,,0.00,,2013-04-03 21:42:00,
2013-04-03 16:52:00,47.0,24.0,28.70,East,95,5.0,5.0,40,0.00,,,0.00,,2013-04-03 21:52:00,
2013-04-03 17:02:00,47.0,24.0,28.70,NNE,15,3.0,3.0,40,0.00,,,0.00,,2013-04-03 22:02:00,
2013-04-03 17:12:00,47.0,24.0,28.70,NNE,15,3.0,3.0,40,0.00,,,0.00,,2013-04-03 22:12:00,
2013-04-03 17:22:00,47.0,25.0,28.70,NNE,32,4.0,5.0,41,0.00,,,0.00,,2013-04-03 22:22:00,
2013-04-03 17:32:00,47.0,25.0,28.70,North,6,3.0,3.0,42,0.00,,,0.00,,2013-04-03 22:32:00,
2013-04-03 17:42:00,47.0,25.0,28.70,North,6,3.0,3.0,42,0.00,,,0.00,,2013-04-03 22:42:00,
2013-04-03 17:52:00,46.0,24.0,28.70,NNE,17,0.0,2.0,41,0.00,,,0.00,,2013-04-03 22:52:00,
2013-04-03 18:02:00,46.0,24.0,28.67,NE,49,3.0,3.0,41,0.00,,,0.00,,2013-04-03 23:02:00,
2013-04-03 18:12:00,46.0,24.0,28.67,NE,49,3.0,3.0,41,0.00,,,0.00,,2013-04-03 23:12:00,
2013-04-03 18:22:00,45.0,23.0,28.70,NE,54,3.0,4.0,42,0.00,,,0.00,,2013-04-03 23:22:00,
2013-04-03 18:32:00,45.0,23.0,28.70,NE,48,3.0,3.0,42,0.00,,,0.00,,2013-04-03 23:32:00,
2013-04-03 18:42:00,45.0,23.0,28.70,NE,48,3.0,3.0,42,0.00,,,0.00,,2013-04-03 23:42:00,
2013-04-03 18:54:00,45.0,24.0,28.70,ENE,59,2.0,3.0,44,0.00,,,0.00,,2013-04-03 23:54:00,
2013-04-03 19:02:00,44.0,24.0,28.70,NE,37,0.0,3.0,45,0.00,,,0.00,,2013-04-04 00:02:00,
2013-04-03 19:12:00,44.0,24.0,28.70,NE,37,0.0,3.0,45,0.00,,,0.00,,2013-04-04 00:12:00,
2013-04-03 19:22:00,44.0,25.0,28.70,ENE,65,2.0,3.0,47,0.00,,,0.00,,2013-04-04 00:22:00,
2013-04-03 19:32:00,44.0,25.0,28.70,ENE,78,2.0,3.0,47,0.00,,,0.00,,2013-04-04 00:32:00,
2013-04-03 19:43:00,44.0,25.0,28.70,ENE,78,2.0,3.0,47,0.00,,,0.00,,2013-04-04 00:43:00,
2013-04-03 19:52:00,44.0,25.0,28.70,NNE,27,5.0,5.0,46,0.00,,,0.00,,2013-04-04 00:52:00,
2013-04-03 20:02:00,43.0,24.0,28.70,NNE,30,2.0,3.0,46,0.00,,,0.00,,2013-04-04 01:02:00,
2013-04-03 20:12:00,43.0,24.0,28.70,NNE,30,2.0,3.0,46,0.00,,,0.00,,2013-04-04 01:12:00,
2013-04-03 20:22:00,43.0,24.0,28.70,NE,51,2.0,3.0,46,0.00,,,0.00,,2013-04-04 01:22:00,
2013-04-03 20:32:00,43.0,24.0,28.70,ENE,76,0.0,3.0,46,0.00,,,0.00,,2013-04-04 01:32:00,
2013-04-03 20:43:00,43.0,24.0,28.70,ENE,76,0.0,3.0,46,0.00,,,0.00,,2013-04-04 01:43:00,
2013-04-03 20:52:00,42.0,23.0,28.70,NE,56,0.0,0.0,47,0.00,,,0.00,,2013-04-04 01:52:00,
2013-04-03 21:02:00,42.0,23.0,28.70,ENE,58,0.0,0.0,47,0.00,,,0.00,,2013-04-04 02:02:00,
2013-04-03 21:12:00,42.0,23.0,28.70,ENE,58,0.0,0.0,47,0.00,,,0.00,,2013-04-04 02:12:00,
2013-04-03 21:22:00,42.0,24.0,28.70,ENE,58,0.0,0.0,48,0.00,,,0.00,,2013-04-04 02:22:00,
2013-04-03 21:32:00,42.0,24.0,28.67,NNE,31,0.0,0.0,48,0.00,,,0.00,,2013-04-04 02:32:00,
2013-04-03 21:42:00,42.0,24.0,28.67,NNE,31,0.0,0.0,48,0.00,,,0.00,,2013-04-04 02:42:00,
2013-04-03 21:52:00,42.0,24.0,28.67,NNE,31,0.0,0.0,48,0.00,,,0.00,,2013-04-04 02:52:00,
2013-04-03 22:02:00,42.0,24.0,28.67,NNE,30,0.0,0.0,48,0.00,,,0.00,,2013-04-04 03:02:00,
2013-04-03 22:12:00,42.0,24.0,28.67,NNE,30,0.0,0.0,48,0.00,,,0.00,,2013-04-04 03:12:00,
2013-04-03 22:22:00,42.0,24.0,28.70,NNE,30,0.0,0.0,49,0.00,,,0.00,,2013-04-04 03:22:00,
2013-04-03 22:33:00,42.0,24.0,28.70,NNE,30,0.0,0.0,49,0.00,,,0.00,,2013-04-04 03:33:00,
2013-04-03 22:44:00,42.0,24.0,28.70,NNE,30,0.0,0.0,49,0.00,,,0.00,,2013-04-04 03:44:00,
2013-04-03 22:53:00,42.0,24.0,28.70,NNE,30,0.0,0.0,49,0.00,,,0.00,,2013-04-04 03:53:00,
2013-04-03 23:03:00,42.0,24.0,28.70,NNE,30,0.0,0.0,49,0.00,,,0.00,,2013-04-04 04:03:00,
2013-04-03 23:12:00,42.0,24.0,28.70,NNE,30,0.0,0.0,49,0.00,,,0.00,,2013-04-04 04:12:00,
2013-04-03 23:23:00,42.0,24.0,28.70,NNE,30,0.0,0.0,49,0.00,,,0.00,,2013-04-04 04:23:00,
2013-04-03 23:33:00,42.0,24.0,28.70,NNE,30,0.0,0.0,49,0.00,,,0.00,,2013-04-04 04:33:00,
2013-04-03 23:43:00,42.0,24.0,28.70,NNE,30,0.0,0.0,49,0.00,,,0.00,,2013-04-04 04:43:00,
2013-04-03 23:53:00,42.0,24.0,28.70,NNE,30,0.0,0.0,49,0.00,,,0.00,,2013-04-04 04:53:00,